Location: Catstown
(52.4386°N, 7.2633°W)
Time: 22:29:35
(UTC+00:00)

SJ-6B - Pass Details

Date: 18 September 2020
Orbit: 511 x 580 km, 97.6° (Epoch: 20 October)

Event Time Altitude Azimuth Distance (km) Brightness Sun altitude
Exits shadow 19:21:25 - 134° (SE) 2,035 5.2 -7.7°
Reaches altitude 10° 19:22:12 10° 129° (SE) 1,735 4.8 -7.8°
Maximum altitude 19:25:32 32° 66° (ENE) 915 3.5 -8.3°
Drops below altitude 10° 19:28:54 10° 3° (N) 1,761 5.5 -8.8°
Sets 19:31:10 0° 354° (N) 2,662 6.6 -9.1°
